Find Starlink 3702

NORAD ID: 52100 Int'l Des: 2022-029 Owner: SPXS Country: US Constellation: starlink operational
LEOCIRCULAR

当前视图

正在加载3D地球...

About Starlink 3702

Starlink 3702 (NORAD 52100) is a starlink constellation satellite (v1.5) launched Mar 19, 2022 by SPXS of US. It operates in LEO, CIRCULAR orbit with a mass of 297.00 kg.

关于 Starlink 3702

正在加载描述...

即将过境

Passes for default location (London). Set your location on the main map for personalized predictions.

高度历史

Loading altitude history...

两行轨道根数

1 52100U 22029N 26173.83335648 .00074484 00000-0 31196-2 0 9991
2 52100 53.1611 336.4928 0001684 78.2893 76.4449 15.22891437 5830
Epoch: Jun 22, 2026 • Age: 16 hours

当前状态

高度 514.0 km
速度 7.61 km/s
星下点 -47.48°S, 178.01°W
发射日期 Mar 19, 2022
运行时间 4.2 years
类型 internet

技术详情

分类 Payload
质量 297.00 kg
干质量 275.00 kg
总质量 297.00 kg
长度 0.20 m
直径 2.80 m
跨度 9.00 m
形状 Box + pan
制造商 SPXS
平台类型 Starlink
阶段状态 In Orbit
所有者/国家 SPXS/US

Most Searched